#timestamp,LO_Frequency,Hit,StdDev 
1637499615.1,286046998.1,N
1637499616.0,286046998.1,N
1637499635.8,286047000.9,N
1637499655.6,286047000.7,N
1637499675.5,286047000.2,N
1637499695.3,286047000.1,N
1637499715.2,286047001.6,N
1637499735.9,286046999.8,N
1637499755.7,286047002.1,N
1637499775.6,286047001.6,N
1637499795.4,286047001.9,N
1637499815.2,286047002.0,N
1637499835.1,286047002.3,N
1637499836.0,286047002.3,N
1637499855.8,286047000.2,N
1637499875.7,286047002.4,N
1637499895.5,286047000.4,N
1637499915.3,286046998.2,N
1637499935.2,286047001.2,N
1637499955.0,286046998.6,N
1637499955.9,286046998.6,N
1637499975.7,286047000.6,N
1637499995.6,286046998.5,N
1637500015.4,286047001.1,N
1637500035.3,286046998.1,N
1637500055.1,286046998.5,N
1637500056.0,286046998.5,N
1637500075.8,286047000.9,N
1637500095.7,286047000.4,N
1637500115.5,286047000.4,N
1637500135.3,286047000.2,N
1637500155.2,286047000.0,N
1637500175.0,286047000.6,N
1637500175.9,286047000.6,N
1637500195.8,286047000.7,N
1637500215.6,286047001.1,N
1637500235.4,286046998.1,N
1637500255.3,286047000.7,N
1637500275.1,286047001.0,N
1637500295.8,286047000.6,N
1637500315.7,286047000.5,N
1637500335.5,286047000.9,N
1637500355.4,286046998.6,N
1637500375.2,286046998.2,N
1637500395.0,286047000.8,N
1637500395.9,286047000.8,N
1637500415.8,286047001.2,N
1637500435.6,286047001.1,N
1637500455.5,286046998.1,N
1637500475.3,286046998.1,N
1637500495.1,286047002.8,N
1637500515.9,286046999.8,N
1637500535.7,286046999.9,N
1637500555.5,286047002.8,N
1637500575.4,286047001.5,N
1637500595.2,286047002.6,N
1637500615.1,286047000.0,N
1637500616.0,286047000.0,N
1637500635.8,286047001.1,N
1637500655.6,286046999.7,N
1637500675.5,286047002.3,N
1637500695.3,286047000.0,N
1637500715.1,286047002.7,N
1637500735.9,286047002.4,N
1637500755.7,286047000.4,N
1637500775.6,286047001.0,N
1637500795.4,286047000.6,N
1637500815.2,286046998.1,N
1637500835.1,286046998.2,N
1637500836.0,286046998.2,N
1637500855.8,286046998.5,N
1637500875.6,286046998.7,N
1637500895.5,286046998.5,N
1637500915.3,286046999.7,N
1637500935.2,286046999.7,N
1637500955.9,286047000.0,N
1637500975.7,286047000.9,N
1637500995.6,286046999.9,N
1637501015.4,286047002.6,N
1637501035.2,286046999.8,N
1637501055.1,286047000.6,N
1637501056.0,286047000.6,N
1637501075.8,286047000.0,N
1637501095.7,286047000.7,N
1637501115.5,286047000.8,N
1637501135.3,286047001.2,N
1637501155.2,286046998.1,N
1637501175.0,286047001.0,N
1637501175.9,286047001.0,N
1637501195.8,286046998.3,N
1637501215.6,286046996.5,N
1637501235.4,286046996.6,N
1637501255.3,286046999.3,N
1637501275.1,286046998.6,N
1637501295.8,286047000.5,N
1637501315.7,286046999.9,N
1637501335.5,286047002.7,N
1637501355.4,286047000.1,N
1637501375.2,286047000.3,N
1637501395.0,286046999.8,N
1637501395.9,286046999.8,N
1637501415.8,286047002.1,N
1637501435.6,286047002.5,N
1637501455.4,286047001.4,N
1637501475.3,286047001.8,N
1637501495.1,286047001.5,N
1637501515.9,286047001.8,N
1637501535.7,286047001.7,N
1637501555.5,286047004.3,N
1637501575.4,286047004.3,N
1637501595.2,286047003.9,N
1637501615.1,286047001.7,N
1637501616.0,286047001.7,N
1637501635.8,286047002.6,N
1637501655.6,286047000.3,N
1637501675.5,286047000.2,N
1637501695.3,286047002.3,N
1637501715.1,286047002.5,N
1637501735.9,286047001.0,N
1637501785.8,286047000.3,E
1637501795.7,286047000.9,N
1637501815.5,286047000.0,P
1637501835.3,286047000.9,N
1637501855.2,286047000.3,N
1637501875.0,286047002.5,Y
1637501875.9,286047002.5,P
1637501895.8,286046999.7,N
1637501915.6,286047002.4,N
1637501935.4,286047002.4,N
1637501955.3,286047003.8,Y
1637501975.1,286047002.3,P
1637501995.9,286047002.2,P
1637502015.7,286047002.7,P
1637502035.5,286047002.3,Y
1637502055.4,286046998.6,P
1637502075.2,286046998.5,N
1637502095.0,286046998.9,N
1637502095.9,286046998.9,N
1637502115.8,286046999.0,N
1637502135.6,286046997.1,N
1637502155.5,286046999.4,N
1637502175.3,286046998.9,N
1637502195.1,286046997.5,N
1637502215.9,286046996.5,N
1637502235.7,286046996.8,N
1637502255.5,286046996.5,N
1637502275.4,286046996.9,N
1637502295.2,286046998.8,N
1637502315.1,286046999.5,N
1637502316.0,286046999.5,N
1637502335.8,286046999.5,N
1637502355.6,286046999.6,N
1637502375.5,286046997.3,N
1637502395.3,286046996.6,N
1637502415.1,286046999.2,N
1637502435.9,286046996.7,N
1637502455.7,286046997.9,N
1637502475.6,286046997.1,N
1637502495.4,286046997.8,N
1637502515.2,286046997.3,N
1637502535.1,286046996.8,N
1637502555.5,286046996.9,N
1637502575.3,286046996.8,N
1637502595.2,286046996.7,N
1637502615.0,286046999.0,N
1637502615.9,286046999.0,N
1637502635.8,286046999.2,N
1637502655.6,286046999.4,N
1637502675.4,286046998.7,N
1637502695.3,286046998.4,N
1637502715.1,286046998.7,N
1637502735.8,286046998.3,N
1637502755.7,286046998.4,N
1637502775.5,286046998.2,N
1637502795.4,286046999.2,N
1637502815.2,286046996.6,Y
1637502835.0,286047001.2,P
1637502835.9,286047001.2,N
1637502855.8,286046998.1,N
1637502875.6,286046998.9,N
1637502895.5,286046998.5,N
1637502915.3,286047000.7,N
1637502935.1,286047000.5,N
1637502955.9,286047000.6,N
1637502975.7,286047000.7,N
1637502995.5,286046998.2,N
1637503015.4,286047000.8,N
1637503035.2,286047001.0,N
1637503055.1,286046998.3,N
1637503056.0,286046998.3,N
1637503075.8,286046999.3,N
1637503095.6,286046998.5,N
1637503115.5,286047000.8,N
1637503135.3,286046998.3,N
1637503155.1,286046998.5,N
1637503175.9,286046998.1,N
1637503195.7,286046998.6,N
